Time,TemperatureF,DewpointF,PressureIn,WindDirection,WindDirectionDegrees,WindSpeedMPH,WindSpeedGustMPH,Humidity,HourlyPrecipIn,Conditions,Clouds,dailyrainin,SoftwareType,DateUTC
2013-01-22 00:05:00,58.8,47.5,30.04,NNW,332,0.0,0.0,66,0.00,CLR,,0.00,WeatherDisplay:10.37,2013-01-22 05:05:00,
2013-01-22 00:10:00,58.6,47.3,30.04,NW,325,0.0,0.0,66,0.00,CLR,,0.00,WeatherDisplay:10.37,2013-01-22 05:10:00,
2013-01-22 00:20:00,58.5,47.1,30.04,SW,225,0.0,1.0,66,0.00,CLR,,0.00,WeatherDisplay:10.37,2013-01-22 05:20:00,
2013-01-22 00:25:00,58.3,47.0,30.04,SW,225,0.0,1.0,66,0.00,CLR,,0.00,WeatherDisplay:10.37,2013-01-22 05:25:00,
2013-01-22 00:30:00,58.1,46.8,30.04,SW,225,0.0,0.0,66,0.00,CLR,,0.00,WeatherDisplay:10.37,2013-01-22 05:30:00,
2013-01-22 00:35:00,57.9,47.0,30.04,SW,225,0.0,1.0,67,0.00,CLR,,0.00,WeatherDisplay:10.37,2013-01-22 05:35:00,
2013-01-22 00:40:00,57.7,46.9,30.04,SW,216,0.0,1.0,67,0.00,CLR,,0.00,WeatherDisplay:10.37,2013-01-22 05:40:00,
2013-01-22 00:45:00,57.6,47.1,30.03,SSW,204,0.0,0.0,68,0.00,CLR,,0.00,WeatherDisplay:10.37,2013-01-22 05:45:00,
2013-01-22 00:50:00,57.7,47.2,30.04,SW,214,0.0,0.0,68,0.00,CLR,,0.00,WeatherDisplay:10.37,2013-01-22 05:50:00,
2013-01-22 00:55:00,57.7,47.2,30.04,SW,217,1.0,1.0,68,0.00,CLR,,0.00,WeatherDisplay:10.37,2013-01-22 05:55:00,
2013-01-22 01:00:00,57.7,47.2,30.04,SSW,205,0.0,0.0,68,0.00,CLR,,0.00,WeatherDisplay:10.37,2013-01-22 06:00:00,
2013-01-22 01:05:00,57.7,47.2,30.04,SSW,202,0.0,0.0,68,0.00,CLR,,0.00,WeatherDisplay:10.37,2013-01-22 06:05:00,
2013-01-22 01:10:00,57.7,47.2,30.04,SSW,202,0.0,0.0,68,0.00,CLR,,0.00,WeatherDisplay:10.37,2013-01-22 06:10:00,
2013-01-22 01:15:00,57.6,47.1,30.03,SSW,202,0.0,2.0,68,0.00,CLR,,0.00,WeatherDisplay:10.37,2013-01-22 06:15:00,
2013-01-22 01:20:00,57.4,46.9,30.04,SSW,202,0.0,0.0,68,0.00,CLR,,0.00,WeatherDisplay:10.37,2013-01-22 06:20:00,
2013-01-22 01:25:00,57.2,46.7,30.04,SSW,202,0.0,1.0,68,0.00,CLR,,0.00,WeatherDisplay:10.37,2013-01-22 06:25:00,
2013-01-22 01:30:00,57.0,46.6,30.04,SSW,202,0.0,1.0,68,0.00,CLR,,0.00,WeatherDisplay:10.37,2013-01-22 06:30:00,
2013-01-22 01:40:00,56.8,46.4,30.04,SSW,202,0.0,0.0,68,0.00,CLR,,0.00,WeatherDisplay:10.37,2013-01-22 06:40:00,
2013-01-22 01:45:00,56.7,46.2,30.03,SSW,202,0.0,0.0,68,0.00,CLR,,0.00,WeatherDisplay:10.37,2013-01-22 06:45:00,
2013-01-22 01:50:00,56.7,46.2,30.02,SSW,202,0.0,3.0,68,0.00,CLR,,0.00,WeatherDisplay:10.37,2013-01-22 06:50:00,
2013-01-22 01:55:00,56.8,46.8,30.02,SSW,202,2.0,4.0,69,0.00,CLR,,0.00,WeatherDisplay:10.37,2013-01-22 06:55:00,
2013-01-22 02:00:00,56.8,46.8,30.02,SSW,202,0.0,0.0,69,0.00,CLR,,0.00,WeatherDisplay:10.37,2013-01-22 07:00:00,
2013-01-22 02:05:00,57.0,46.9,30.03,SSW,202,0.0,0.0,69,0.00,CLR,,0.00,WeatherDisplay:10.37,2013-01-22 07:05:00,
2013-01-22 02:10:00,57.2,47.5,30.03,SW,221,1.0,2.0,70,0.00,CLR,,0.00,WeatherDisplay:10.37,2013-01-22 07:10:00,
2013-01-22 02:15:00,57.4,47.7,30.03,WSW,247,0.0,2.0,70,0.00,CLR,,0.00,WeatherDisplay:10.37,2013-01-22 07:15:00,
2013-01-22 02:25:00,57.6,47.5,30.03,SW,222,0.0,0.0,69,0.00,CLR,,0.00,WeatherDisplay:10.37,2013-01-22 07:25:00,
2013-01-22 02:30:00,57.7,47.6,30.03,SW,236,0.0,1.0,69,0.00,CLR,,0.00,WeatherDisplay:10.37,2013-01-22 07:30:00,
2013-01-22 02:35:00,57.7,47.6,30.02,SW,236,0.0,0.0,69,0.00,CLR,,0.00,WeatherDisplay:10.37,2013-01-22 07:35:00,
2013-01-22 02:40:00,57.9,47.8,30.03,SW,222,1.0,2.0,69,0.00,CLR,,0.00,WeatherDisplay:10.37,2013-01-22 07:40:00,
2013-01-22 02:50:00,57.9,47.0,30.03,SSE,162,0.0,0.0,67,0.00,CLR,,0.00,WeatherDisplay:10.37,2013-01-22 07:50:00,
2013-01-22 02:55:00,57.9,46.6,30.03,South,179,0.0,0.0,66,0.00,CLR,,0.00,WeatherDisplay:10.37,2013-01-22 07:55:00,
2013-01-22 03:00:00,57.9,46.6,30.03,SSW,209,0.0,0.0,66,0.00,CLR,,0.00,WeatherDisplay:10.37,2013-01-22 08:00:00,
2013-01-22 03:05:00,57.9,46.2,30.03,WSW,243,0.0,0.0,65,0.00,CLR,,0.00,WeatherDisplay:10.37,2013-01-22 08:05:00,
2013-01-22 03:10:00,57.9,45.8,30.03,WNW,283,0.0,0.0,64,0.00,CLR,,0.00,WeatherDisplay:10.37,2013-01-22 08:10:00,
2013-01-22 03:15:00,57.7,45.6,30.03,WSW,241,0.0,0.0,64,0.00,CLR,,0.00,WeatherDisplay:10.37,2013-01-22 08:15:00,
2013-01-22 03:20:00,57.7,45.2,30.02,SW,235,0.0,0.0,63,0.00,CLR,,0.00,WeatherDisplay:10.37,2013-01-22 08:20:00,
2013-01-22 03:25:00,57.6,45.1,30.03,WSW,238,0.0,0.0,63,0.00,CLR,,0.00,WeatherDisplay:10.37,2013-01-22 08:25:00,
2013-01-22 03:30:00,57.6,45.0,30.03,SW,227,0.0,0.0,63,0.00,CLR,,0.00,WeatherDisplay:10.37,2013-01-22 08:30:00,
2013-01-22 03:40:00,57.2,44.3,30.03,SW,221,0.0,0.0,62,0.00,CLR,,0.00,WeatherDisplay:10.37,2013-01-22 08:40:00,
2013-01-22 03:45:00,57.0,44.1,30.03,SSW,205,0.0,0.0,62,0.00,CLR,,0.00,WeatherDisplay:10.37,2013-01-22 08:45:00,
2013-01-22 03:50:00,56.8,43.5,30.02,SW,218,0.0,0.0,61,0.00,CLR,,0.00,WeatherDisplay:10.37,2013-01-22 08:50:00,
2013-01-22 03:55:00,56.8,43.5,30.03,SW,225,0.0,0.0,61,0.00,CLR,,0.00,WeatherDisplay:10.37,2013-01-22 08:55:00,
2013-01-22 04:00:00,56.8,43.5,30.02,SW,223,0.0,0.0,61,0.00,CLR,,0.00,WeatherDisplay:10.37,2013-01-22 09:00:00,
2013-01-22 04:05:00,57.0,43.3,30.03,SSW,201,0.0,0.0,60,0.00,CLR,,0.00,WeatherDisplay:10.37,2013-01-22 09:05:00,
2013-01-22 04:10:00,57.0,42.8,30.03,SSW,195,0.0,0.0,59,0.00,CLR,,0.00,WeatherDisplay:10.37,2013-01-22 09:10:00,
2013-01-22 04:15:00,57.0,42.8,30.02,SSW,202,0.0,0.0,59,0.00,CLR,,0.00,WeatherDisplay:10.37,2013-01-22 09:15:00,
2013-01-22 04:20:00,57.0,42.8,30.03,SSW,202,0.0,0.0,59,0.00,CLR,,0.00,WeatherDisplay:10.37,2013-01-22 09:20:00,
2013-01-22 04:30:00,57.0,42.8,30.03,SSW,196,0.0,1.0,59,0.00,CLR,,0.00,WeatherDisplay:10.37,2013-01-22 09:30:00,
2013-01-22 04:35:00,56.8,42.7,30.03,South,184,0.0,1.0,59,0.00,CLR,,0.00,WeatherDisplay:10.37,2013-01-22 09:35:00,
2013-01-22 04:40:00,56.8,42.2,30.03,South,180,0.0,0.0,58,0.00,CLR,,0.00,WeatherDisplay:10.37,2013-01-22 09:40:00,
2013-01-22 04:45:00,56.8,42.2,30.03,South,180,0.0,0.0,58,0.00,CLR,,0.00,WeatherDisplay:10.37,2013-01-22 09:45:00,
2013-01-22 04:55:00,56.8,42.2,30.03,South,188,1.0,1.0,58,0.00,CLR,,0.00,WeatherDisplay:10.37,2013-01-22 09:55:00,
2013-01-22 05:00:00,56.7,42.1,30.03,SSW,212,0.0,1.0,58,0.00,CLR,,0.00,WeatherDisplay:10.37,2013-01-22 10:00:00,
2013-01-22 05:05:00,56.7,42.0,30.03,SW,225,0.0,0.0,58,0.00,CLR,,0.00,WeatherDisplay:10.37,2013-01-22 10:05:00,
2013-01-22 05:10:00,56.7,42.0,30.04,SSW,213,0.0,0.0,58,0.00,CLR,,0.00,WeatherDisplay:10.37,2013-01-22 10:10:00,
2013-01-22 05:15:00,56.7,42.0,30.04,SW,227,0.0,0.0,58,0.00,CLR,,0.00,WeatherDisplay:10.37,2013-01-22 10:15:00,
2013-01-22 05:20:00,56.7,41.6,30.04,WSW,255,0.0,0.0,57,0.00,CLR,,0.00,WeatherDisplay:10.37,2013-01-22 10:20:00,
2013-01-22 05:30:00,56.3,41.3,30.04,NW,315,0.0,0.0,57,0.00,CLR,,0.00,WeatherDisplay:10.37,2013-01-22 10:30:00,
2013-01-22 05:40:00,56.1,42.0,30.04,WNW,292,0.0,0.0,59,0.00,CLR,,0.00,WeatherDisplay:10.37,2013-01-22 10:40:00,
2013-01-22 05:45:00,55.8,41.6,30.05,WNW,292,0.0,0.0,59,0.00,CLR,,0.00,WeatherDisplay:10.37,2013-01-22 10:45:00,
2013-01-22 05:50:00,55.8,41.6,30.05,WNW,292,0.0,0.0,59,0.00,CLR,,0.00,WeatherDisplay:10.37,2013-01-22 10:50:00,
2013-01-22 05:55:00,55.8,41.6,30.05,WNW,292,0.0,0.0,59,0.00,CLR,,0.00,WeatherDisplay:10.37,2013-01-22 10:55:00,
2013-01-22 06:00:00,55.7,41.6,30.05,WNW,292,0.0,0.0,59,0.00,CLR,,0.00,WeatherDisplay:10.37,2013-01-22 11:00:00,
2013-01-22 06:05:00,55.6,41.5,30.05,WNW,292,0.0,0.0,59,0.00,CLR,,0.00,WeatherDisplay:10.37,2013-01-22 11:05:00,
2013-01-22 06:10:00,55.6,41.5,30.06,WNW,292,0.0,0.0,59,0.00,CLR,,0.00,WeatherDisplay:10.37,2013-01-22 11:10:00,
2013-01-22 06:15:00,55.6,41.5,30.06,WNW,292,0.0,0.0,59,0.00,CLR,,0.00,WeatherDisplay:10.37,2013-01-22 11:15:00,
2013-01-22 06:20:00,55.4,41.3,30.06,WNW,292,0.0,0.0,59,0.00,CLR,,0.00,WeatherDisplay:10.37,2013-01-22 11:20:00,
2013-01-22 06:25:00,55.1,41.0,30.06,WNW,292,0.0,0.0,59,0.00,CLR,,0.00,WeatherDisplay:10.37,2013-01-22 11:25:00,
2013-01-22 06:30:00,55.0,41.0,30.06,WNW,292,0.0,0.0,59,0.00,CLR,,0.00,WeatherDisplay:10.37,2013-01-22 11:30:00,
2013-01-22 06:35:00,55.0,41.0,30.07,WNW,292,0.0,0.0,59,0.00,CLR,,0.00,WeatherDisplay:10.37,2013-01-22 11:35:00,
2013-01-22 06:40:00,55.0,41.0,30.08,WNW,292,0.0,0.0,59,0.00,CLR,,0.00,WeatherDisplay:10.37,2013-01-22 11:40:00,
2013-01-22 06:45:00,54.9,41.2,30.08,WNW,292,0.0,0.0,60,0.00,CLR,,0.00,WeatherDisplay:10.37,2013-01-22 11:45:00,
2013-01-22 06:55:00,54.6,41.0,30.08,WNW,292,0.0,0.0,60,0.00,CLR,,0.00,WeatherDisplay:10.37,2013-01-22 11:55:00,
2013-01-22 07:00:00,54.3,40.7,30.08,WNW,292,0.0,0.0,60,0.00,CLR,,0.00,WeatherDisplay:10.37,2013-01-22 12:00:00,
2013-01-22 07:05:00,54.3,41.1,30.08,WNW,292,0.0,0.0,61,0.00,CLR,,0.00,WeatherDisplay:10.37,2013-01-22 12:05:00,
2013-01-22 07:10:00,54.3,41.1,30.08,WNW,292,0.0,0.0,61,0.00,CLR,,0.00,WeatherDisplay:10.37,2013-01-22 12:10:00,
2013-01-22 07:15:00,54.1,41.0,30.08,WNW,292,0.0,0.0,61,0.00,CLR,,0.00,WeatherDisplay:10.37,2013-01-22 12:15:00,
2013-01-22 07:20:00,54.1,41.4,30.09,WNW,292,0.0,0.0,62,0.00,CLR,,0.00,WeatherDisplay:10.37,2013-01-22 12:20:00,
2013-01-22 07:25:00,54.0,41.2,30.09,WNW,292,0.0,0.0,62,0.00,CLR,,0.00,WeatherDisplay:10.37,2013-01-22 12:25:00,
2013-01-22 07:30:00,53.8,41.1,30.10,WNW,292,0.0,0.0,62,0.00,CLR,,0.00,WeatherDisplay:10.37,2013-01-22 12:30:00,
2013-01-22 07:35:00,53.8,41.1,30.10,WNW,292,0.0,0.0,62,0.00,CLR,,0.00,WeatherDisplay:10.37,2013-01-22 12:35:00,
2013-01-22 07:40:00,53.8,41.5,30.10,WNW,292,0.0,0.0,63,0.00,CLR,,0.00,WeatherDisplay:10.37,2013-01-22 12:40:00,
2013-01-22 07:45:00,53.8,41.5,30.11,WNW,292,0.0,0.0,63,0.00,CLR,,0.00,WeatherDisplay:10.37,2013-01-22 12:45:00,
2013-01-22 07:50:00,53.8,41.5,30.11,WNW,292,0.0,0.0,63,0.00,CLR,,0.00,WeatherDisplay:10.37,2013-01-22 12:50:00,
2013-01-22 07:55:00,53.8,41.5,30.11,WNW,292,0.0,0.0,63,0.00,CLR,,0.00,WeatherDisplay:10.37,2013-01-22 12:55:00,
2013-01-22 08:00:00,54.0,42.1,30.11,WNW,292,0.0,0.0,64,0.00,CLR,,0.00,WeatherDisplay:10.37,2013-01-22 13:00:00,
2013-01-22 08:05:00,54.1,42.2,30.11,WNW,292,0.0,0.0,64,0.00,CLR,,0.00,WeatherDisplay:10.37,2013-01-22 13:05:00,
2013-01-22 08:10:00,54.4,42.5,30.12,WNW,292,0.0,0.0,64,0.00,CLR,,0.00,WeatherDisplay:10.37,2013-01-22 13:10:00,
2013-01-22 08:20:00,54.9,42.5,30.13,SW,229,0.0,0.0,63,0.00,CLR,,0.00,WeatherDisplay:10.37,2013-01-22 13:20:00,
2013-01-22 08:30:00,55.2,42.0,30.13,WSW,244,0.0,0.0,61,0.00,CLR,,0.00,WeatherDisplay:10.37,2013-01-22 13:30:00,
2013-01-22 08:35:00,55.2,42.0,30.13,NW,304,0.0,0.0,61,0.00,CLR,,0.00,WeatherDisplay:10.37,2013-01-22 13:35:00,
2013-01-22 08:40:00,55.6,41.9,30.14,NNW,348,0.0,0.0,60,0.00,CLR,,0.00,WeatherDisplay:10.37,2013-01-22 13:40:00,
2013-01-22 08:45:00,55.6,41.9,30.14,NW,314,1.0,2.0,60,0.00,CLR,,0.00,WeatherDisplay:10.37,2013-01-22 13:45:00,
2013-01-22 08:50:00,55.9,42.3,30.14,WSW,255,0.0,3.0,60,0.00,CLR,,0.00,WeatherDisplay:10.37,2013-01-22 13:50:00,
2013-01-22 08:55:00,56.2,42.1,30.14,West,279,1.0,3.0,59,0.00,CLR,,0.00,WeatherDisplay:10.37,2013-01-22 13:55:00,
2013-01-22 09:00:00,56.5,41.9,30.15,WSW,241,0.0,0.0,58,0.00,CLR,,0.00,WeatherDisplay:10.37,2013-01-22 14:00:00,
2013-01-22 09:05:00,56.7,41.6,30.15,WSW,246,2.0,2.0,57,0.00,CLR,,0.00,WeatherDisplay:10.37,2013-01-22 14:05:00,
2013-01-22 09:10:00,56.8,41.3,30.16,West,261,0.0,2.0,56,0.00,CLR,,0.00,WeatherDisplay:10.37,2013-01-22 14:10:00,
2013-01-22 09:15:00,57.0,41.5,30.16,West,274,0.0,0.0,56,0.00,CLR,,0.00,WeatherDisplay:10.37,2013-01-22 14:15:00,
2013-01-22 09:20:00,57.4,41.3,30.17,West,274,0.0,0.0,55,0.00,CLR,,0.00,WeatherDisplay:10.37,2013-01-22 14:20:00,
2013-01-22 09:25:00,57.6,41.0,30.16,WSW,246,0.0,0.0,54,0.00,CLR,,0.00,WeatherDisplay:10.37,2013-01-22 14:25:00,
2013-01-22 09:30:00,57.7,40.7,30.17,WSW,243,0.0,0.0,53,0.00,CLR,,0.00,WeatherDisplay:10.37,2013-01-22 14:30:00,
2013-01-22 09:35:00,57.9,40.4,30.17,SW,231,2.0,2.0,52,0.00,CLR,,0.00,WeatherDisplay:10.37,2013-01-22 14:35:00,
2013-01-22 09:40:00,57.9,40.4,30.17,SSW,204,3.0,5.0,52,0.00,CLR,,0.00,WeatherDisplay:10.37,2013-01-22 14:40:00,
2013-01-22 09:45:00,58.3,39.7,30.17,SW,215,0.0,5.0,50,0.00,CLR,,0.00,WeatherDisplay:10.37,2013-01-22 14:45:00,
2013-01-22 09:50:00,58.4,39.8,30.18,SW,232,0.0,0.0,50,0.00,CLR,,0.00,WeatherDisplay:10.37,2013-01-22 14:50:00,
2013-01-22 09:55:00,58.5,39.9,30.18,WNW,285,0.0,0.0,50,0.00,CLR,,0.00,WeatherDisplay:10.37,2013-01-22 14:55:00,
2013-01-22 10:00:00,58.6,40.0,30.18,WNW,301,0.0,0.0,50,0.00,CLR,,0.00,WeatherDisplay:10.37,2013-01-22 15:00:00,
2013-01-22 10:05:00,58.9,39.7,30.18,WNW,282,0.0,2.0,49,0.00,CLR,,0.00,WeatherDisplay:10.37,2013-01-22 15:05:00,
2013-01-22 10:10:00,59.3,40.1,30.18,WNW,302,0.0,2.0,49,0.00,CLR,,0.00,WeatherDisplay:10.37,2013-01-22 15:10:00,
2013-01-22 10:15:00,59.5,39.8,30.18,NW,312,0.0,0.0,48,0.00,CLR,,0.00,WeatherDisplay:10.37,2013-01-22 15:15:00,
2013-01-22 10:20:00,60.0,40.2,30.19,West,272,0.0,1.0,48,0.00,CLR,,0.00,WeatherDisplay:10.37,2013-01-22 15:20:00,
2013-01-22 10:25:00,60.6,39.7,30.19,SSW,212,1.0,3.0,46,0.00,CLR,,0.00,WeatherDisplay:10.37,2013-01-22 15:25:00,
2013-01-22 10:30:00,61.0,39.5,30.19,South,179,0.0,0.0,45,0.00,CLR,,0.00,WeatherDisplay:10.37,2013-01-22 15:30:00,
2013-01-22 10:35:00,61.6,40.1,30.19,West,266,0.0,2.0,45,0.00,CLR,,0.00,WeatherDisplay:10.37,2013-01-22 15:35:00,
2013-01-22 10:40:00,62.2,40.0,30.19,WNW,282,0.0,2.0,44,0.00,CLR,,0.00,WeatherDisplay:10.37,2013-01-22 15:40:00,
2013-01-22 10:45:00,63.1,40.9,30.19,West,276,0.0,0.0,44,0.00,CLR,,0.00,WeatherDisplay:10.37,2013-01-22 15:45:00,
2013-01-22 10:50:00,63.7,41.4,30.19,SW,229,0.0,0.0,44,0.00,CLR,,0.00,WeatherDisplay:10.37,2013-01-22 15:50:00,
2013-01-22 10:55:00,64.0,40.5,30.19,WSW,255,0.0,0.0,42,0.00,CLR,,0.00,WeatherDisplay:10.37,2013-01-22 15:55:00,
2013-01-22 11:00:00,64.8,40.5,30.19,WSW,258,0.0,0.0,41,0.00,CLR,,0.00,WeatherDisplay:10.37,2013-01-22 16:00:00,
2013-01-22 11:05:00,65.3,40.3,30.19,WSW,254,0.0,0.0,40,0.00,CLR,,0.00,WeatherDisplay:10.37,2013-01-22 16:05:00,
2013-01-22 11:10:00,66.7,41.6,30.19,SW,218,0.0,0.0,40,0.00,CLR,,0.00,WeatherDisplay:10.37,2013-01-22 16:10:00,
2013-01-22 11:15:00,67.3,40.8,30.19,WSW,253,2.0,2.0,38,0.00,CLR,,0.00,WeatherDisplay:10.37,2013-01-22 16:15:00,
2013-01-22 11:20:00,68.3,41.0,30.18,WSW,256,0.0,2.0,37,0.00,CLR,,0.00,WeatherDisplay:10.37,2013-01-22 16:20:00,
2013-01-22 11:25:00,68.7,41.4,30.18,SW,223,0.0,0.0,37,0.00,CLR,,0.00,WeatherDisplay:10.37,2013-01-22 16:25:00,
2013-01-22 11:30:00,69.0,40.2,30.18,WSW,256,0.0,0.0,35,0.00,CLR,,0.00,WeatherDisplay:10.37,2013-01-22 16:30:00,
2013-01-22 11:35:00,69.4,40.6,30.18,WSW,257,1.0,2.0,35,0.00,CLR,,0.00,WeatherDisplay:10.37,2013-01-22 16:35:00,
2013-01-22 11:40:00,69.8,40.2,30.17,SW,222,0.0,2.0,34,0.00,CLR,,0.00,WeatherDisplay:10.37,2013-01-22 16:40:00,
2013-01-22 11:45:00,70.0,39.5,30.17,West,273,1.0,6.0,33,0.00,CLR,,0.00,WeatherDisplay:10.37,2013-01-22 16:45:00,
2013-01-22 11:50:00,70.0,38.8,30.17,West,280,0.0,6.0,32,0.00,CLR,,0.00,WeatherDisplay:10.37,2013-01-22 16:50:00,
2013-01-22 11:55:00,70.2,38.9,30.17,SW,231,0.0,0.0,32,0.00,CLR,,0.00,WeatherDisplay:10.37,2013-01-22 16:55:00,
2013-01-22 12:00:00,70.2,38.9,30.17,SW,224,0.0,0.0,32,0.00,CLR,,0.00,WeatherDisplay:10.37,2013-01-22 17:00:00,
2013-01-22 12:05:00,70.5,39.2,30.17,WSW,242,0.0,0.0,32,0.00,CLR,,0.00,WeatherDisplay:10.37,2013-01-22 17:05:00,
2013-01-22 12:10:00,70.2,38.1,30.17,WSW,246,0.0,0.0,31,0.00,CLR,,0.00,WeatherDisplay:10.37,2013-01-22 17:10:00,
2013-01-22 12:15:00,70.1,38.0,30.17,West,261,0.0,0.0,31,0.00,CLR,,0.00,WeatherDisplay:10.37,2013-01-22 17:15:00,
2013-01-22 12:20:00,69.6,37.6,30.17,WSW,242,0.0,0.0,31,0.00,CLR,,0.00,WeatherDisplay:10.37,2013-01-22 17:20:00,
2013-01-22 12:25:00,69.4,37.5,30.17,SSW,208,0.0,0.0,31,0.00,CLR,,0.00,WeatherDisplay:10.37,2013-01-22 17:25:00,
2013-01-22 12:30:00,69.1,37.2,30.16,SSW,209,0.0,0.0,31,0.00,CLR,,0.00,WeatherDisplay:10.37,2013-01-22 17:30:00,
2013-01-22 12:35:00,68.9,37.0,30.16,SW,217,1.0,2.0,31,0.00,CLR,,0.00,WeatherDisplay:10.37,2013-01-22 17:35:00,
2013-01-22 12:40:00,68.9,37.0,30.16,SW,227,0.0,0.0,31,0.00,CLR,,0.00,WeatherDisplay:10.37,2013-01-22 17:40:00,
2013-01-22 12:45:00,69.1,37.2,30.16,WSW,243,0.0,0.0,31,0.00,CLR,,0.00,WeatherDisplay:10.37,2013-01-22 17:45:00,
2013-01-22 12:50:00,69.2,36.4,30.16,WNW,293,0.0,0.0,30,0.00,CLR,,0.00,WeatherDisplay:10.37,2013-01-22 17:50:00,
2013-01-22 12:55:00,69.8,36.9,30.15,NW,315,0.0,0.0,30,0.00,CLR,,0.00,WeatherDisplay:10.37,2013-01-22 17:55:00,
2013-01-22 13:00:00,70.3,37.4,30.15,WSW,252,0.0,0.0,30,0.00,CLR,,0.00,WeatherDisplay:10.37,2013-01-22 18:00:00,
2013-01-22 13:05:00,71.2,35.5,30.14,SW,214,0.0,0.0,27,0.00,CLR,,0.00,WeatherDisplay:10.37,2013-01-22 18:05:00,
2013-01-22 13:10:00,72.0,36.1,30.14,SSW,198,0.0,0.0,27,0.00,CLR,,0.00,WeatherDisplay:10.37,2013-01-22 18:10:00,
2013-01-22 13:15:00,72.0,34.2,30.14,WNW,283,0.0,1.0,25,0.00,CLR,,0.00,WeatherDisplay:10.37,2013-01-22 18:15:00,
2013-01-22 13:20:00,72.0,33.2,30.14,NW,314,0.0,1.0,24,0.00,CLR,,0.00,WeatherDisplay:10.37,2013-01-22 18:20:00,
2013-01-22 13:25:00,71.8,32.0,30.14,NW,314,0.0,0.0,23,0.00,CLR,,0.00,WeatherDisplay:10.37,2013-01-22 18:25:00,
2013-01-22 13:30:00,71.7,31.9,30.13,NW,321,0.0,0.0,23,0.00,CLR,,0.00,WeatherDisplay:10.37,2013-01-22 18:30:00,
2013-01-22 13:35:00,71.2,31.5,30.14,West,281,0.0,0.0,23,0.00,CLR,,0.00,WeatherDisplay:10.37,2013-01-22 18:35:00,
2013-01-22 13:40:00,71.1,29.1,30.14,SW,226,0.0,0.0,21,0.00,CLR,,0.00,WeatherDisplay:10.37,2013-01-22 18:40:00,
2013-01-22 13:45:00,70.2,26.0,30.13,SW,225,0.0,0.0,19,0.00,CLR,,0.00,WeatherDisplay:10.37,2013-01-22 18:45:00,
2013-01-22 13:50:00,69.6,25.5,30.13,SW,225,0.0,0.0,19,0.00,CLR,,0.00,WeatherDisplay:10.37,2013-01-22 18:50:00,
2013-01-22 13:55:00,69.3,25.2,30.13,SW,225,0.0,0.0,19,0.00,CLR,,0.00,WeatherDisplay:10.37,2013-01-22 18:55:00,
2013-01-22 14:00:00,69.0,27.4,30.13,SSW,209,0.0,0.0,21,0.00,CLR,,0.00,WeatherDisplay:10.37,2013-01-22 19:00:00,
2013-01-22 14:05:00,68.9,24.9,30.13,SSW,204,0.0,0.0,19,0.00,CLR,,0.00,WeatherDisplay:10.37,2013-01-22 19:05:00,
2013-01-22 14:10:00,68.5,24.6,30.13,WNW,301,0.0,2.0,19,0.00,CLR,,0.00,WeatherDisplay:10.37,2013-01-22 19:10:00,
2013-01-22 14:15:00,68.4,24.5,30.12,NNW,338,0.0,2.0,19,0.00,CLR,,0.00,WeatherDisplay:10.37,2013-01-22 19:15:00,
2013-01-22 14:20:00,68.4,24.5,30.12,WNW,292,0.0,0.0,19,0.00,CLR,,0.00,WeatherDisplay:10.37,2013-01-22 19:20:00,
2013-01-22 14:25:00,68.7,27.2,30.13,West,275,0.0,0.0,21,0.00,CLR,,0.00,WeatherDisplay:10.37,2013-01-22 19:25:00,
2013-01-22 14:30:00,68.9,24.9,30.13,WNW,282,0.0,0.0,19,0.00,CLR,,0.00,WeatherDisplay:10.37,2013-01-22 19:30:00,
2013-01-22 14:35:00,68.7,24.8,30.13,WNW,298,0.0,0.0,19,0.00,CLR,,0.00,WeatherDisplay:10.37,2013-01-22 19:35:00,
2013-01-22 14:40:00,68.5,24.6,30.12,NW,310,0.0,0.0,19,0.00,CLR,,0.00,WeatherDisplay:10.37,2013-01-22 19:40:00,
2013-01-22 14:45:00,68.4,24.5,30.12,NW,306,0.0,0.0,19,0.00,CLR,,0.00,WeatherDisplay:10.37,2013-01-22 19:45:00,
2013-01-22 14:50:00,68.7,24.8,30.12,WNW,294,0.0,0.0,19,0.00,CLR,,0.00,WeatherDisplay:10.37,2013-01-22 19:50:00,
2013-01-22 14:55:00,68.4,24.5,30.12,NW,317,0.0,0.0,19,0.00,CLR,,0.00,WeatherDisplay:10.37,2013-01-22 19:55:00,
2013-01-22 15:05:00,68.2,24.3,30.12,West,259,0.0,0.0,19,0.00,CLR,,0.00,WeatherDisplay:10.37,2013-01-22 20:05:00,
2013-01-22 15:10:00,68.4,28.0,30.13,West,271,0.0,0.0,22,0.00,CLR,,0.00,WeatherDisplay:10.37,2013-01-22 20:10:00,
2013-01-22 15:15:00,68.4,29.1,30.12,WNW,300,0.0,0.0,23,0.00,CLR,,0.00,WeatherDisplay:10.37,2013-01-22 20:15:00,
2013-01-22 15:20:00,68.4,28.0,30.12,WNW,292,0.0,0.0,22,0.00,CLR,,0.00,WeatherDisplay:10.37,2013-01-22 20:20:00,
2013-01-22 15:25:00,68.4,29.1,30.13,WNW,290,0.0,0.0,23,0.00,CLR,,0.00,WeatherDisplay:10.37,2013-01-22 20:25:00,
2013-01-22 15:30:00,68.4,29.1,30.13,SW,235,0.0,0.0,23,0.00,CLR,,0.00,WeatherDisplay:10.37,2013-01-22 20:30:00,
2013-01-22 15:35:00,68.4,29.1,30.13,SSW,202,0.0,0.0,23,0.00,CLR,,0.00,WeatherDisplay:10.37,2013-01-22 20:35:00,
2013-01-22 15:40:00,68.4,29.1,30.13,WSW,242,0.0,0.0,23,0.00,CLR,,0.00,WeatherDisplay:10.37,2013-01-22 20:40:00,
2013-01-22 15:45:00,68.4,30.1,30.14,West,270,0.0,0.0,24,0.00,CLR,,0.00,WeatherDisplay:10.37,2013-01-22 20:45:00,
2013-01-22 15:50:00,68.4,29.1,30.14,SW,220,0.0,0.0,23,0.00,CLR,,0.00,WeatherDisplay:10.37,2013-01-22 20:50:00,
2013-01-22 15:55:00,68.2,28.9,30.14,SSE,164,0.0,0.0,23,0.00,CLR,,0.00,WeatherDisplay:10.37,2013-01-22 20:55:00,
2013-01-22 16:00:00,67.8,28.6,30.14,SSE,158,0.0,0.0,23,0.00,CLR,,0.00,WeatherDisplay:10.37,2013-01-22 21:00:00,
2013-01-22 16:05:00,67.8,29.7,30.14,SSE,158,0.0,0.0,24,0.00,CLR,,0.00,WeatherDisplay:10.37,2013-01-22 21:05:00,
2013-01-22 16:15:00,66.9,27.9,30.14,West,267,1.0,2.0,23,0.00,CLR,,0.00,WeatherDisplay:10.37,2013-01-22 21:15:00,
2013-01-22 16:20:00,66.6,26.5,30.14,WSW,250,0.0,0.0,22,0.00,CLR,,0.00,WeatherDisplay:10.37,2013-01-22 21:20:00,
2013-01-22 16:25:00,66.0,26.0,30.14,West,260,0.0,0.0,22,0.00,CLR,,0.00,WeatherDisplay:10.37,2013-01-22 21:25:00,
2013-01-22 16:30:00,65.7,25.7,30.15,West,259,0.0,0.0,22,0.00,CLR,,0.00,WeatherDisplay:10.37,2013-01-22 21:30:00,
2013-01-22 16:35:00,65.5,25.6,30.14,SW,222,0.0,0.0,22,0.00,CLR,,0.00,WeatherDisplay:10.37,2013-01-22 21:35:00,
2013-01-22 16:40:00,65.3,25.4,30.15,SW,228,0.0,0.0,22,0.00,CLR,,0.00,WeatherDisplay:10.37,2013-01-22 21:40:00,
2013-01-22 16:45:00,64.8,25.0,30.15,WNW,289,0.0,0.0,22,0.00,CLR,,0.00,WeatherDisplay:10.37,2013-01-22 21:45:00,
2013-01-22 16:50:00,64.8,26.1,30.15,NW,315,0.0,0.0,23,0.00,CLR,,0.00,WeatherDisplay:10.37,2013-01-22 21:50:00,
2013-01-22 16:55:00,64.6,23.7,30.15,NW,305,1.0,2.0,21,0.00,CLR,,0.00,WeatherDisplay:10.37,2013-01-22 21:55:00,
2013-01-22 17:00:00,64.0,23.3,30.15,WNW,288,0.0,0.0,21,0.00,CLR,,0.00,WeatherDisplay:10.37,2013-01-22 22:00:00,
2013-01-22 17:05:00,63.9,24.2,30.15,SW,218,0.0,0.0,22,0.00,CLR,,0.00,WeatherDisplay:10.37,2013-01-22 22:05:00,
2013-01-22 17:10:00,63.5,23.9,30.15,SE,140,0.0,0.0,22,0.00,CLR,,0.00,WeatherDisplay:10.37,2013-01-22 22:10:00,
2013-01-22 17:15:00,63.5,23.9,30.16,East,81,0.0,0.0,22,0.00,CLR,,0.00,WeatherDisplay:10.37,2013-01-22 22:15:00,
2013-01-22 17:20:00,63.1,24.7,30.16,North,353,0.0,0.0,23,0.00,CLR,,0.00,WeatherDisplay:10.37,2013-01-22 22:20:00,
2013-01-22 17:25:00,63.0,24.5,30.17,WNW,284,0.0,0.0,23,0.00,CLR,,0.00,WeatherDisplay:10.37,2013-01-22 22:25:00,
2013-01-22 17:30:00,62.8,24.4,30.17,WNW,283,0.0,0.0,23,0.00,CLR,,0.00,WeatherDisplay:10.37,2013-01-22 22:30:00,
2013-01-22 17:35:00,62.2,23.9,30.17,WNW,292,0.0,0.0,23,0.00,CLR,,0.00,WeatherDisplay:10.37,2013-01-22 22:35:00,
2013-01-22 17:40:00,61.9,22.6,30.17,WNW,292,0.0,0.0,22,0.00,CLR,,0.00,WeatherDisplay:10.37,2013-01-22 22:40:00,
2013-01-22 17:45:00,61.5,23.3,30.17,WNW,292,0.0,0.0,23,0.00,CLR,,0.00,WeatherDisplay:10.37,2013-01-22 22:45:00,
2013-01-22 17:50:00,61.2,23.0,30.17,WNW,292,0.0,0.0,23,0.00,CLR,,0.00,WeatherDisplay:10.37,2013-01-22 22:50:00,
2013-01-22 17:55:00,60.8,22.7,30.17,WSW,250,0.0,0.0,23,0.00,CLR,,0.00,WeatherDisplay:10.37,2013-01-22 22:55:00,
2013-01-22 18:00:00,60.6,23.6,30.17,SE,135,0.0,0.0,24,0.00,CLR,,0.00,WeatherDisplay:10.37,2013-01-22 23:00:00,
2013-01-22 18:05:00,60.2,22.2,30.17,SSW,201,0.0,0.0,23,0.00,CLR,,0.00,WeatherDisplay:10.37,2013-01-22 23:05:00,
2013-01-22 18:10:00,59.9,23.0,30.18,SSW,211,0.0,0.0,24,0.00,CLR,,0.00,WeatherDisplay:10.37,2013-01-22 23:10:00,
2013-01-22 18:15:00,59.7,23.8,30.18,SSW,202,0.0,0.0,25,0.00,CLR,,0.00,WeatherDisplay:10.37,2013-01-22 23:15:00,
2013-01-22 18:20:00,59.4,23.5,30.18,SSW,202,0.0,0.0,25,0.00,CLR,,0.00,WeatherDisplay:10.37,2013-01-22 23:20:00,
2013-01-22 18:25:00,59.0,24.1,30.18,SSW,202,0.0,0.0,26,0.00,CLR,,0.00,WeatherDisplay:10.37,2013-01-22 23:25:00,
2013-01-22 18:30:00,58.8,24.0,30.18,SSW,202,0.0,0.0,26,0.00,CLR,,0.00,WeatherDisplay:10.37,2013-01-22 23:30:00,
2013-01-22 18:35:00,58.4,24.5,30.18,SSW,202,0.0,0.0,27,0.00,CLR,,0.00,WeatherDisplay:10.37,2013-01-22 23:35:00,
2013-01-22 18:40:00,58.1,25.1,30.18,SSW,202,0.0,0.0,28,0.00,CLR,,0.00,WeatherDisplay:10.37,2013-01-22 23:40:00,
2013-01-22 18:45:00,57.9,25.8,30.18,SSW,202,0.0,0.0,29,0.00,CLR,,0.00,WeatherDisplay:10.37,2013-01-22 23:45:00,
2013-01-22 18:50:00,57.6,26.3,30.18,SSW,202,0.0,0.0,30,0.00,CLR,,0.00,WeatherDisplay:10.37,2013-01-22 23:50:00,
2013-01-22 18:55:00,57.4,26.2,30.19,SSW,202,0.0,0.0,30,0.00,CLR,,0.00,WeatherDisplay:10.37,2013-01-22 23:55:00,
2013-01-22 19:00:00,57.0,26.6,30.19,SSW,202,0.0,0.0,31,0.00,CLR,,0.00,WeatherDisplay:10.37,2013-01-23 00:00:00,
2013-01-22 19:05:00,56.7,26.4,30.19,SSW,202,0.0,0.0,31,0.00,CLR,,0.00,WeatherDisplay:10.37,2013-01-23 00:05:00,
2013-01-22 19:10:00,56.7,27.1,30.19,SSW,202,0.0,0.0,32,0.00,CLR,,0.00,WeatherDisplay:10.37,2013-01-23 00:10:00,
2013-01-22 19:15:00,56.5,26.9,30.19,SSW,202,0.0,0.0,32,0.00,CLR,,0.00,WeatherDisplay:10.37,2013-01-23 00:15:00,
2013-01-22 19:20:00,56.5,26.9,30.19,SSW,202,0.0,0.0,32,0.00,CLR,,0.00,WeatherDisplay:10.37,2013-01-23 00:20:00,
2013-01-22 19:25:00,56.3,26.8,30.19,SSW,202,0.0,0.0,32,0.00,CLR,,0.00,WeatherDisplay:10.37,2013-01-23 00:25:00,
2013-01-22 19:30:00,56.3,26.8,30.20,SSW,202,0.0,0.0,32,0.00,CLR,,0.00,WeatherDisplay:10.37,2013-01-23 00:30:00,
2013-01-22 19:35:00,56.1,27.4,30.20,SSW,202,0.0,0.0,33,0.00,CLR,,0.00,WeatherDisplay:10.37,2013-01-23 00:35:00,
2013-01-22 19:40:00,55.9,27.2,30.19,SSW,202,0.0,0.0,33,0.00,CLR,,0.00,WeatherDisplay:10.37,2013-01-23 00:40:00,
2013-01-22 19:45:00,55.8,27.1,30.19,SSW,202,0.0,0.0,33,0.00,CLR,,0.00,WeatherDisplay:10.37,2013-01-23 00:45:00,
2013-01-22 19:50:00,55.8,27.8,30.20,SSW,202,0.0,0.0,34,0.00,CLR,,0.00,WeatherDisplay:10.37,2013-01-23 00:50:00,
2013-01-22 19:55:00,55.9,27.9,30.19,SSW,202,0.0,0.0,34,0.00,CLR,,0.00,WeatherDisplay:10.37,2013-01-23 00:55:00,
2013-01-22 20:00:00,55.9,27.9,30.20,SSW,202,0.0,0.0,34,0.00,CLR,,0.00,WeatherDisplay:10.37,2013-01-23 01:00:00,
2013-01-22 20:05:00,56.1,28.1,30.19,SSW,202,0.0,0.0,34,0.00,CLR,,0.00,WeatherDisplay:10.37,2013-01-23 01:05:00,
2013-01-22 20:10:00,56.1,28.1,30.20,SSW,202,0.0,0.0,34,0.00,CLR,,0.00,WeatherDisplay:10.37,2013-01-23 01:10:00,
2013-01-22 20:15:00,56.1,28.1,30.20,SSW,202,0.0,0.0,34,0.00,CLR,,0.00,WeatherDisplay:10.37,2013-01-23 01:15:00,
2013-01-22 20:20:00,56.1,28.1,30.20,SSW,202,0.0,0.0,34,0.00,CLR,,0.00,WeatherDisplay:10.37,2013-01-23 01:20:00,
2013-01-22 20:25:00,55.9,27.9,30.20,SSW,202,0.0,0.0,34,0.00,CLR,,0.00,WeatherDisplay:10.37,2013-01-23 01:25:00,
2013-01-22 20:30:00,55.9,27.9,30.20,SSW,202,0.0,0.0,34,0.00,CLR,,0.00,WeatherDisplay:10.37,2013-01-23 01:30:00,
2013-01-22 20:35:00,55.8,28.5,30.21,SSW,202,0.0,0.0,35,0.00,CLR,,0.00,WeatherDisplay:10.37,2013-01-23 01:35:00,
2013-01-22 20:40:00,55.8,28.5,30.21,SSW,202,0.0,0.0,35,0.00,CLR,,0.00,WeatherDisplay:10.37,2013-01-23 01:40:00,
2013-01-22 20:45:00,55.6,28.3,30.21,SSW,202,0.0,0.0,35,0.00,CLR,,0.00,WeatherDisplay:10.37,2013-01-23 01:45:00,
2013-01-22 20:50:00,55.4,28.9,30.21,SSW,202,0.0,0.0,36,0.00,CLR,,0.00,WeatherDisplay:10.37,2013-01-23 01:50:00,
2013-01-22 20:55:00,55.4,28.9,30.22,SSW,202,0.0,0.0,36,0.00,CLR,,0.00,WeatherDisplay:10.37,2013-01-23 01:55:00,
2013-01-22 21:00:00,55.0,28.5,30.22,SSW,202,0.0,0.0,36,0.00,CLR,,0.00,WeatherDisplay:10.37,2013-01-23 02:00:00,
2013-01-22 21:05:00,54.9,29.1,30.21,SSW,202,0.0,0.0,37,0.00,CLR,,0.00,WeatherDisplay:10.37,2013-01-23 02:05:00,
2013-01-22 21:10:00,54.9,29.1,30.22,SSW,202,0.0,0.0,37,0.00,CLR,,0.00,WeatherDisplay:10.37,2013-01-23 02:10:00,
2013-01-22 21:15:00,54.8,29.6,30.22,SSW,202,0.0,0.0,38,0.00,CLR,,0.00,WeatherDisplay:10.37,2013-01-23 02:15:00,
2013-01-22 21:20:00,54.5,29.4,30.22,SSW,202,0.0,0.0,38,0.00,CLR,,0.00,WeatherDisplay:10.37,2013-01-23 02:20:00,
2013-01-22 21:30:00,54.4,29.3,30.22,SSW,202,0.0,0.0,38,0.00,CLR,,0.00,WeatherDisplay:10.37,2013-01-23 02:30:00,
2013-01-22 21:40:00,53.9,29.5,30.22,SSW,202,0.0,0.0,39,0.00,CLR,,0.00,WeatherDisplay:10.37,2013-01-23 02:40:00,
2013-01-22 21:50:00,53.4,29.7,30.22,SSW,202,0.0,0.0,40,0.00,CLR,,0.00,WeatherDisplay:10.37,2013-01-23 02:50:00,
2013-01-22 21:55:00,53.2,30.1,30.22,SSW,202,0.0,0.0,41,0.00,CLR,,0.00,WeatherDisplay:10.37,2013-01-23 02:55:00,
2013-01-22 22:00:00,53.1,30.0,30.22,SSW,202,0.0,0.0,41,0.00,CLR,,0.00,WeatherDisplay:10.37,2013-01-23 03:00:00,
2013-01-22 22:05:00,53.1,30.6,30.22,SSW,202,0.0,0.0,42,0.00,CLR,,0.00,WeatherDisplay:10.37,2013-01-23 03:05:00,
2013-01-22 22:10:00,52.9,30.4,30.22,SSW,202,0.0,0.0,42,0.00,CLR,,0.00,WeatherDisplay:10.37,2013-01-23 03:10:00,
2013-01-22 22:15:00,52.7,30.2,30.22,SSW,202,0.0,0.0,42,0.00,CLR,,0.00,WeatherDisplay:10.37,2013-01-23 03:15:00,
2013-01-22 22:20:00,52.7,30.2,30.22,SSW,202,0.0,0.0,42,0.00,CLR,,0.00,WeatherDisplay:10.37,2013-01-23 03:20:00,
2013-01-22 22:30:00,52.2,30.9,30.22,SSW,202,0.0,0.0,44,0.00,CLR,,0.00,WeatherDisplay:10.37,2013-01-23 03:30:00,
2013-01-22 22:35:00,52.2,30.9,30.22,SSW,202,0.0,0.0,44,0.00,CLR,,0.00,WeatherDisplay:10.37,2013-01-23 03:35:00,
2013-01-22 22:40:00,52.2,31.4,30.22,SSW,202,0.0,0.0,45,0.00,CLR,,0.00,WeatherDisplay:10.37,2013-01-23 03:40:00,
2013-01-22 22:45:00,52.0,31.3,30.22,SSW,202,0.0,0.0,45,0.00,CLR,,0.00,WeatherDisplay:10.37,2013-01-23 03:45:00,
2013-01-22 22:50:00,52.0,31.3,30.23,SSW,202,0.0,0.0,45,0.00,CLR,,0.00,WeatherDisplay:10.37,2013-01-23 03:50:00,
2013-01-22 22:55:00,52.0,31.3,30.23,SSW,202,0.0,0.0,45,0.00,CLR,,0.00,WeatherDisplay:10.37,2013-01-23 03:55:00,
2013-01-22 23:05:00,51.8,31.7,30.22,SSW,202,0.0,0.0,46,0.00,CLR,,0.00,WeatherDisplay:10.37,2013-01-23 04:05:00,
2013-01-22 23:10:00,51.6,31.4,30.22,SSW,202,0.0,0.0,46,0.00,CLR,,0.00,WeatherDisplay:10.37,2013-01-23 04:10:00,
2013-01-22 23:15:00,51.4,31.9,30.22,SSW,202,0.0,0.0,47,0.00,CLR,,0.00,WeatherDisplay:10.37,2013-01-23 04:15:00,
2013-01-22 23:20:00,51.3,31.7,30.22,SSW,202,0.0,0.0,47,0.00,CLR,,0.00,WeatherDisplay:10.37,2013-01-23 04:20:00,
2013-01-22 23:25:00,51.3,31.7,30.23,SSW,202,0.0,0.0,47,0.00,CLR,,0.00,WeatherDisplay:10.37,2013-01-23 04:25:00,
2013-01-22 23:30:00,51.1,32.1,30.23,SSW,202,0.0,0.0,48,0.00,CLR,,0.00,WeatherDisplay:10.37,2013-01-23 04:30:00,
2013-01-22 23:35:00,50.9,31.9,30.23,SSW,202,0.0,0.0,48,0.00,CLR,,0.00,WeatherDisplay:10.37,2013-01-23 04:35:00,
2013-01-22 23:40:00,50.9,31.9,30.23,SSW,202,0.0,0.0,48,0.00,CLR,,0.00,WeatherDisplay:10.37,2013-01-23 04:40:00,
2013-01-22 23:50:00,50.9,32.4,30.23,SSW,202,0.0,0.0,49,0.00,CLR,,0.00,WeatherDisplay:10.37,2013-01-23 04:50:00,
2013-01-22 23:55:00,50.7,32.7,30.23,SSW,202,0.0,0.0,50,0.00,CLR,,0.00,WeatherDisplay:10.37,2013-01-23 04:55:00,